Wind_Speed
38 41 43 46 48 49 51 45 40 28 27 28 31 36 38 40 41 36 33 32 32 33 34 32 31 31 31 33 34 35 37 39 38 40 44 45 42 39 34 27 25 21 23
40 42 44 47 48 48 49 40 38 31 29 33 36 40 40 39 40 35 31 31 32 31 31 28 30 33 34 35 38 38 39 41 41 41 44 43 40 37 31 23 24 23 21
41 43 46 47 48 47 47 39 34 33 30 32 35 37 39 38 38 33 31 30 29 29 29 29 30 32 34 35 37 38 40 42 42 42 43 40 36 30 27 21 22 19 19
42 46 45 47 46 44 45 38 31 29 30 33 35 36 38 39 37 32 32 31 31 29 29 30 30 32 34 35 36 38 40 41 43 43 41 35 29 23 21 19 20 17 17
44 45 46 44 43 43 40 33 32 29 30 33 35 37 38 39 37 33 32 32 30 30 31 32 32 33 35 35 35 38 40 42 43 43 38 28 24 21 21 17 17 15 13
45 45 44 43 40 41 36 33 34 30 31 33 34 36 37 39 38 36 32 29 29 30 31 32 33 33 33 37 39 40 40 42 40 39 33 27 22 19 18 16 17 15 11
44 44 43 40 39 38 36 35 31 31 33 34 36 36 38 38 39 37 34 31 30 32 33 34 34 34 35 39 43 45 45 45 39 33 29 28 23 23 20 20 19 19 19
42 43 41 39 39 36 35 32 31 31 33 34 35 36 37 38 39 35 34 34 33 34 35 34 34 36 40 42 43 44 44 43 38 32 30 29 26 27 25 21 21 22 20
41 43 38 39 39 36 34 33 30 31 33 33 34 36 34 36 38 38 37 37 35 36 36 37 39 40 40 41 39 39 39 40 39 36 32 29 28 27 26 23 21 22 24
40 38 39 41 39 32 32 32 31 31 32 32 34 36 34 36 37 36 34 35 35 35 36 36 36 35 36 36 37 38 38 38 37 34 32 29 28 26 26 25 20 23 24
38 40 42 43 40 30 30 26 28 29 30 31 33 35 34 35 36 35 34 33 33 33 32 32 32 33 34 35 34 32 29 27 27 25 24 23 23 23 22 21 19 20 24
38 39 38 38 32 25 23 24 26 27 30 31 33 34 37 39 40 37 36 34 33 33 31 30 30 32 32 32 30 29 28 25 23 20 18 15 15 15 15 16 15 18 23
33 32 31 28 22 20 22 28 27 29 29 31 33 35 38 39 37 36 35 34 35 33 30 30 30 30 30 29 28 27 26 24 22 18 16 15 15 16 17 19 21 26 28
29 25 25 20 22 25 23 26 29 30 32 32 33 34 37 38 36 35 33 34 33 30 28 29 29 30 28 28 29 29 28 27 25 23 20 19 21 21 21 22 25 30 27
28 23 25 24 22 25 28 28 29 31 34 35 36 39 39 38 34 31 31 33 31 28 27 28 30 31 32 32 32 33 32 28 25 22 21 21 22 22 22 22 21 17 16
29 26 24 28 26 24 26 33 32 30 34 36 37 38 40 36 30 31 34 33 29 27 27 28 32 33 33 34 35 35 32 29 30 27 23 20 19 19 19 18 16 12 12
25 24 23 25 26 27 29 30 33 31 33 36 37 35 37 33 32 32 34 30 27 26 28 30 33 35 33 35 35 37 37 31 27 23 20 21 21 17 16 14 13 10 10
23 23 26 28 30 30 31 31 31 33 37 39 40 37 35 32 30 32 31 27 27 29 31 33 35 32 33 34 41 34 22 23 23 20 20 14 14 13 12 10 9 8 9
25 25 27 27 30 30 30 29 30 34 37 39 38 37 34 27 31 31 27 26 27 30 33 34 30 32 35 40 30 21 21 19 21 21 20 17 11 10 10 7 5 6 6
25 28 29 29 28 26 27 28 31 36 39 38 35 33 27 30 32 26 25 26 30 33 32 30 32 36 37 25 24 23 21 19 23 25 18 16 13 10 7 5 2 3 3
24 25 25 24 24 26 27 30 33 37 37 36 33 27 27 31 27 24 25 28 31 31 29 30 34 34 29 33 30 27 28 27 32 20 20 20 15 9 8 4 3 7 9
24 23 20 20 21 26 28 31 35 35 34 31 30 26 29 30 22 23 25 28 28 29 30 30 35 30 28 30 31 31 27 28 32 27 20 15 12 6 8 8 7 11 12
20 19 19 20 22 25 29 32 32 33 31 30 25 27 28 22 20 21 25 26 28 30 30 31 31 28 26 29 33 28 23 23 23 26 27 17 8 2 4 12 10 12 15
17 16 18 20 23 27 29 30 31 30 29 25 25 26 24 17 19 21 24 25 29 31 29 30 30 28 19 29 39 32 28 22 22 21 21 16 15 10 5 8 14 13 14
14 16 18 21 25 26 27 29 30 28 24 24 25 26 18 18 18 21 23 24 28 29 28 28 30 29 28 27 34 41 36 29 24 23 19 16 17 14 13 11 13 16 16
13 16 19 22 25 24 28 29 29 26 24 23 25 22 16 17 18 22 21 24 28 26 26 28 27 28 31 28 34 37 36 30 27 27 23 17 19 21 24 23 21 20 20
Wind_Direction
312 315 319 319 323 325 325 325 333 328 316 318 320 322 325 324 320 319 311 306 302 308 311 302 297 295 299 304 305 305 307 308 311 314 314 314 315 312 312 309 307 307 316
314 316 318 320 323 324 326 323 320 316 320 326 328 320 322 324 323 319 307 303 302 309 311 303 296 298 301 304 306 307 308 308 310 313 313 313 315 312 307 301 298 292 310
313 316 319 320 323 323 325 322 315 316 311 311 316 318 322 325 321 316 310 304 304 308 309 307 302 302 306 307 306 306 307 308 310 313 315 316 316 311 308 299 291 292 290
314 317 319 320 321 323 323 319 314 313 315 318 318 320 324 325 320 317 312 309 307 308 307 307 305 306 307 307 307 307 307 310 312 315 317 317 317 320 314 294 290 294 268
314 317 318 321 322 324 322 318 313 316 318 320 320 322 325 322 325 321 310 304 305 307 306 305 304 305 306 306 307 309 310 311 314 315 314 309 308 314 320 297 280 285 281
316 318 320 320 323 323 320 315 314 315 317 320 318 322 326 323 328 324 316 309 304 306 308 306 304 305 307 310 313 312 311 310 311 310 305 299 298 303 313 300 267 265 233
317 318 320 320 321 320 317 312 313 315 318 318 318 324 326 326 328 324 323 317 312 309 309 308 308 308 307 310 311 311 310 310 311 305 300 297 283 291 298 303 275 258 242
317 320 320 318 318 316 318 316 311 313 315 317 321 325 327 329 329 328 329 327 316 310 307 307 306 306 307 308 308 308 309 309 308 304 299 293 283 285 291 289 287 260 252
319 319 317 316 315 314 315 315 313 313 315 320 323 325 329 329 331 333 335 333 324 310 306 302 305 308 309 310 311 309 309 307 304 300 295 290 286 287 291 291 276 273 253
319 319 315 313 315 312 315 314 314 314 315 320 324 327 330 331 332 332 332 328 327 325 321 319 318 316 315 316 315 313 312 310 307 300 291 283 281 282 284 283 271 260 263
321 318 314 314 311 302 304 308 309 313 317 322 327 323 325 330 331 331 331 331 331 327 323 322 323 324 323 322 323 324 325 324 322 316 305 292 282 279 277 275 272 259 256
319 321 326 320 317 311 306 310 315 317 317 323 326 324 329 334 333 333 334 337 333 330 329 329 329 328 329 329 328 327 326 326 325 325 319 309 294 285 283 283 288 282 259
326 336 342 340 331 320 319 319 320 317 320 325 324 328 332 335 336 333 333 333 332 331 331 332 333 337 338 337 335 334 332 328 322 315 309 299 289 285 289 291 283 292 274
327 331 337 339 339 337 328 320 319 318 320 325 326 332 334 336 337 333 331 333 332 328 329 332 337 337 337 337 336 334 330 324 319 312 299 292 287 286 289 291 288 296 259
324 326 335 326 324 324 330 325 324 325 321 325 330 336 338 331 333 332 332 330 328 327 327 336 338 337 337 336 333 331 329 325 320 317 311 301 293 288 288 293 297 301 257
321 316 319 321 322 325 324 324 327 325 324 326 331 334 333 331 335 334 332 332 331 330 330 330 336 335 336 333 332 331 329 326 322 319 314 310 306 294 290 295 296 286 252
315 323 324 320 325 324 321 320 319 322 325 329 331 336 334 331 331 330 332 333 333 331 331 330 333 336 334 332 334 329 331 333 327 327 314 300 300 305 296 295 296 267 259
313 318 319 318 319 319 320 320 321 325 327 330 332 335 333 330 331 332 334 336 337 336 335 334 335 337 335 335 330 348 344 338 334 327 316 307 299 301 308 298 291 255 246
315 316 319 319 321 316 317 317 321 323 327 331 332 336 335 338 336 337 338 338 338 337 338 340 344 342 337 334 355 350 350 344 345 335 326 320 291 284 305 307 280 245 228
318 315 312 316 318 321 321 323 323 326 329 331 335 337 338 337 339 341 341 342 342 342 345 349 349 340 346 3 353 356 353 347 354 342 330 323 306 257 270 299 241 204 194
319 323 324 324 323 323 321 322 326 328 329 332 334 338 337 339 342 343 345 345 346 350 351 353 345 354 12 6 10 8 358 348 345 343 346 340 319 280 226 226 155 157 172
315 322 323 323 329 330 327 326 327 328 331 333 336 338 337 340 344 345 348 349 352 353 352 354 348 15 11 9 6 356 358 1 359 1 343 330 322 289 222 198 164 152 164
318 323 324 328 330 328 329 329 329 331 336 338 339 337 339 344 346 350 352 352 354 354 357 351 9 10 17 13 10 7 11 359 3 13 18 16 14 2 191 187 173 159 156
323 326 329 330 332 333 332 331 332 338 339 342 340 340 344 350 351 355 353 354 356 357 1 2 13 12 9 19 22 26 15 14 14 18 21 25 35 50 116 162 172 164 155
325 331 330 335 334 332 333 336 342 342 345 343 342 345 353 353 358 357 355 357 357 1 3 17 17 4 12 28 20 25 24 27 23 23 32 44 51 62 75 111 140 163 153
332 331 335 335 334 337 338 340 343 344 344 342 345 351 357 358 0 359 357 358 0 6 11 25 18 5 9 16 29 21 21 30 31 35 44 58 70 76 80 92 110 119 128
Height
5815 5809 5803 5796 5789 5781 5773 5764 5757 5751 5746 5742 5737 5731 5724 5717 5711 5704 5698 5695 5692 5688 5684 5681 5678 5674 5670 5666 5662 5657 5651 5646 5643 5639 5631 5624 5619 5613 5609 5605 5601 5597 5592
5808 5802 5796 5789 5782 5774 5766 5759 5753 5747 5742 5738 5731 5726 5719 5711 5704 5698 5693 5689 5685 5681 5677 5674 5671 5667 5662 5658 5654 5649 5645 5638 5633 5630 5623 5617 5610 5604 5601 5598 5596 5593 5590
5801 5795 5788 5781 5774 5767 5759 5753 5747 5742 5737 5732 5726 5720 5713 5705 5698 5692 5687 5682 5678 5674 5670 5666 5663 5660 5655 5651 5646 5642 5636 5630 5625 5620 5615 5607 5602 5596 5592 5591 5590 5588 5587
5794 5788 5781 5774 5767 5760 5753 5746 5742 5737 5732 5727 5720 5714 5706 5699 5692 5685 5680 5675 5671 5666 5663 5659 5655 5652 5648 5644 5639 5633 5628 5623 5616 5611 5605 5600 5594 5590 5587 5585 5584 5584 5584
5786 5780 5773 5766 5760 5753 5746 5741 5736 5731 5726 5720 5714 5707 5700 5693 5686 5679 5673 5668 5663 5659 5654 5651 5647 5644 5640 5635 5631 5626 5620 5614 5608 5602 5597 5593 5589 5586 5583 5580 5580 5580 5580
5778 5772 5765 5759 5753 5746 5741 5735 5731 5725 5720 5714 5708 5701 5694 5686 5678 5671 5666 5661 5655 5651 5647 5643 5639 5636 5632 5625 5620 5615 5611 5606 5600 5593 5589 5587 5583 5581 5578 5576 5575 5576 5577
5771 5764 5758 5752 5746 5740 5735 5729 5725 5719 5714 5708 5701 5695 5687 5680 5672 5665 5658 5652 5647 5643 5639 5635 5631 5626 5622 5617 5611 5604 5599 5593 5589 5585 5581 5578 5577 5574 5573 5571 5570 5570 5572
5763 5757 5751 5746 5740 5734 5729 5724 5718 5713 5708 5702 5695 5689 5681 5672 5665 5659 5651 5644 5639 5634 5630 5626 5622 5617 5612 5607 5602 5595 5588 5582 5578 5575 5572 5569 5568 5566 5565 5565 5564 5564 5565
5757 5750 5744 5739 5733 5727 5722 5717 5713 5707 5702 5696 5689 5682 5676 5668 5659 5651 5643 5637 5632 5627 5622 5617 5613 5607 5601 5596 5591 5584 5578 5573 5567 5564 5561 5559 5558 5557 5556 5557 5556 5557 5558
5750 5744 5737 5731 5726 5721 5716 5711 5706 5701 5696 5690 5684 5676 5670 5663 5655 5646 5639 5633 5626 5621 5614 5609 5603 5598 5592 5586 5580 5574 5568 5561 5556 5551 5549 5548 5547 5548 5547 5547 5548 5549 5550
5743 5737 5730 5724 5717 5712 5709 5704 5701 5696 5691 5685 5678 5672 5666 5658 5650 5642 5635 5627 5621 5616 5610 5603 5596 5591 5585 5578 5571 5565 5560 5554 5548 5544 5540 5538 5538 5538 5539 5538 5539 5541 5543
5737 5730 5723 5715 5709 5706 5704 5700 5696 5691 5687 5680 5674 5667 5657 5650 5642 5634 5627 5621 5616 5610 5604 5597 5592 5586 5579 5572 5565 5559 5554 5549 5544 5540 5536 5534 5533 5533 5533 5533 5533 5534 5536
5732 5725 5718 5711 5706 5704 5701 5697 5692 5687 5682 5676 5670 5662 5652 5644 5636 5630 5623 5617 5610 5604 5599 5593 5587 5580 5573 5566 5560 5555 5549 5544 5539 5535 5532 5530 5528 5527 5526 5525 5525 5525 5526
5728 5722 5716 5711 5706 5702 5698 5694 5690 5684 5677 5672 5664 5657 5648 5639 5633 5626 5620 5613 5606 5600 5595 5589 5582 5576 5569 5563 5557 5551 5545 5540 5535 5530 5527 5524 5522 5520 5519 5517 5516 5513 5509
5723 5719 5714 5709 5705 5700 5696 5692 5686 5680 5674 5666 5658 5650 5642 5635 5628 5622 5616 5609 5603 5597 5591 5584 5578 5571 5564 5558 5552 5546 5540 5534 5529 5524 5520 5517 5514 5512 5510 5508 5506 5503 5502
5718 5714 5709 5706 5701 5697 5692 5687 5683 5677 5670 5663 5655 5645 5637 5632 5624 5618 5611 5603 5597 5592 5586 5580 5574 5567 5561 5554 5547 5540 5533 5528 5523 5518 5513 5510 5507 5505 5503 5501 5499 5498 5498
5712 5708 5705 5702 5697 5693 5688 5683 5677 5672 5666 5659 5651 5642 5634 5627 5621 5614 5607 5600 5594 5588 5582 5576 5570 5563 5556 5549 5542 5535 5527 5521 5515 5510 5505 5503 5501 5499 5497 5495 5494 5494 5494
5707 5703 5700 5696 5692 5688 5683 5677 5672 5665 5659 5652 5645 5638 5632 5624 5617 5610 5603 5596 5590 5584 5578 5572 5565 5558 5551 5544 5537 5529 5522 5516 5510 5504 5499 5496 5494 5494 5492 5491 5489 5490 5490
5703 5699 5695 5691 5687 5682 5678 5673 5667 5662 5655 5648 5640 5633 5627 5620 5613 5606 5600 5594 5589 5582 5575 5568 5561 5554 5547 5540 5532 5525 5520 5514 5508 5502 5496 5492 5490 5489 5489 5488 5486 5487 5488
5698 5693 5689 5686 5682 5677 5673 5669 5663 5657 5651 5644 5637 5630 5624 5617 5610 5604 5598 5593 5586 5579 5572 5565 5559 5552 5544 5537 5530 5524 5517 5511 5505 5499 5493 5490 5487 5486 5487 5487 5485 5486 5487
5693 5689 5684 5681 5678 5674 5670 5665 5659 5653 5647 5640 5634 5628 5622 5615 5609 5603 5597 5592 5585 5578 5571 5566 5559 5550 5543 5537 5530 5523 5516 5509 5502 5496 5492 5488 5484 5483 5484 5486 5486 5487 5489
5689 5685 5682 5679 5675 5671 5666 5662 5656 5650 5643 5637 5630 5625 5619 5613 5608 5602 5597 5591 5584 5578 5572 5566 5557 5551 5545 5538 5530 5522 5514 5508 5501 5493 5487 5483 5481 5481 5482 5485 5487 5488 5491
5685 5682 5679 5676 5672 5668 5664 5659 5653 5646 5640 5634 5629 5623 5618 5612 5607 5602 5598 5591 5585 5579 5573 5566 5558 5552 5546 5540 5531 5521 5515 5509 5503 5496 5488 5482 5479 5479 5481 5483 5487 5490 5492
5682 5680 5677 5674 5670 5666 5661 5656 5650 5644 5638 5633 5628 5622 5617 5612 5607 5603 5598 5592 5586 5580 5575 5568 5561 5554 5548 5541 5534 5524 5516 5510 5505 5499 5493 5488 5484 5481 5481 5483 5487 5491 5495
5681 5678 5675 5672 5668 5664 5659 5654 5647 5642 5637 5632 5627 5621 5616 5612 5608 5604 5599 5594 5589 5583 5578 5571 5564 5557 5550 5546 5538 5527 5522 5515 5508 5502 5496 5492 5488 5485 5483 5484 5487 5492 5497
5679 5677 5674 5670 5667 5662 5657 5652 5646 5640 5636 5631 5626 5621 5617 5613 5610 5606 5601 5597 5592 5586 5581 5575 5570 5561 5554 5551 5547 5539 5528 5521 5514 5507 5501 5497 5495 5493 5491 5490 5492 5495 5499